Temp
-15 -15 -15 -15 -15 -15 -15 -15 -15 -15 -15 -15 -15 -15 -15 -15 -15 -15 -15 -15 -15 -15 -15 -15 -15 -15 -15 -16 -16 -16 -16 -16 -16 -16 -16 -16 -16 -16 -16 -16 -16 -16 -16 -16 -16 -16 -16 -16 -16 -16 -16 -16 -16 -16 -16 -16 -16 -16 -16 -16 -16 -16 -16 -16 -16 -16 -16 -16 -16 -16 -16 -16 -16 -16
-15 -15 -15 -15 -15 -15 -15 -15 -15 -15 -15 -15 -15 -15 -15 -16 -16 -15 -15 -16 -15 -16 -16 -16 -16 -16 -16 -16 -16 -16 -16 -16 -16 -16 -16 -16 -16 -16 -16 -16 -16 -16 -16 -16 -16 -16 -16 -16 -16 -16 -16 -16 -17 -17 -17 -17 -17 -17 -17 -16 -16 -16 -16 -16 -16 -16 -16 -16 -16 -16 -16 -16 -16 -16
-15 -15 -15 -15 -16 -16 -16 -16 -15 -15 -15 -15 -16 -16 -16 -16 -16 -16 -16 -16 -16 -16 -16 -16 -16 -16 -16 -16 -16 -16 -16 -16 -16 -16 -16 -16 -16 -16 -16 -16 -16 -16 -16 -16 -16 -16 -16 -16 -16 -17 -17 -17 -17 -17 -17 -17 -17 -17 -17 -17 -17 -17 -17 -17 -17 -16 -16 -16 -16 -16 -16 -16 -16 -16
-15 -15 -15 -16 -16 -16 -16 -16 -16 -16 -16 -16 -16 -16 -16 -16 -16 -16 -16 -16 -16 -16 -16 -16 -16 -16 -16 -16 -16 -17 -17 -17 -17 -17 -17 -17 -17 -17 -17 -17 -17 -17 -17 -17 -17 -17 -17 -17 -17 -17 -17 -17 -17 -17 -17 -17 -17 -17 -17 -17 -17 -17 -17 -17 -17 -17 -17 -17 -17 -16 -16 -16 -16 -16
-16 -16 -16 -16 -16 -16 -16 -16 -16 -17 -17 -17 -16 -17 -17 -17 -16 -16 -16 -16 -16 -17 -17 -17 -17 -17 -17 -17 -17 -17 -17 -17 -17 -17 -17 -17 -17 -17 -17 -17 -17 -17 -17 -17 -17 -17 -17 -17 -17 -17 -17 -17 -17 -17 -17 -17 -17 -17 -17 -17 -17 -17 -17 -17 -17 -17 -17 -17 -17 -17 -17 -17 -17 -16
-16 -16 -16 -16 -16 -16 -16 -17 -17 -17 -17 -17 -17 -17 -17 -17 -17 -17 -17 -17 -17 -17 -17 -17 -17 -17 -17 -17 -17 -17 -17 -17 -17 -17 -17 -17 -17 -17 -17 -17 -17 -17 -17 -17 -17 -17 -17 -17 -17 -17 -17 -17 -17 -17 -17 -17 -17 -17 -17 -17 -17 -17 -17 -17 -17 -17 -17 -17 -17 -17 -17 -17 -17 -17
-16 -16 -16 -17 -17 -17 -17 -17 -17 -17 -17 -17 -17 -17 -17 -17 -17 -17 -17 -17 -17 -17 -17 -17 -17 -17 -17 -17 -17 -17 -17 -17 -17 -17 -17 -17 -17 -17 -17 -17 -17 -17 -17 -17 -17 -17 -17 -17 -17 -17 -17 -17 -17 -17 -17 -17 -17 -17 -17 -17 -17 -17 -17 -17 -17 -17 -17 -17 -17 -17 -17 -17 -17 -17
-16 -16 -17 -17 -17 -17 -17 -17 -17 -18 -17 -17 -17 -17 -17 -18 -18 -18 -18 -18 -18 -18 -18 -18 -17 -17 -17 -18 -18 -17 -17 -17 -17 -17 -17 -17 -17 -17 -17 -18 -18 -18 -18 -18 -17 -17 -17 -17 -17 -17 -17 -17 -17 -18 -18 -17 -17 -17 -17 -17 -17 -17 -17 -17 -17 -17 -17 -17 -17 -17 -17 -17 -17 -17
-16 -17 -17 -17 -17 -17 -17 -17 -17 -18 -18 -18 -18 -18 -18 -18 -18 -18 -18 -18 -18 -18 -18 -18 -18 -18 -18 -18 -18 -18 -18 -18 -17 -17 -17 -17 -17 -17 -17 -17 -18 -18 -18 -18 -18 -18 -18 -17 -17 -17 -17 -17 -17 -17 -17 -17 -17 -17 -17 -17 -17 -17 -17 -17 -17 -17 -17 -17 -17 -17 -17 -17 -17 -17
-17 -17 -17 -17 -17 -17 -17 -17 -17 -18 -18 -18 -18 -18 -18 -18 -18 -18 -18 -18 -18 -18 -18 -18 -18 -18 -18 -18 -18 -18 -18 -18 -18 -18 -18 -18 -18 -18 -18 -18 -17 -18 -18 -17 -17 -17 -17 -17 -17 -17 -17 -17 -17 -17 -17 -17 -17 -17 -17 -17 -17 -17 -17 -17 -17 -17 -17 -17 -17 -17 -17 -17 -17 -17
-17 -17 -18 -18 -18 -18 -18 -17 -17 -18 -18 -18 -18 -18 -19 -18 -18 -18 -18 -18 -18 -18 -18 -18 -18 -18 -18 -18 -18 -18 -18 -18 -18 -18 -18 -18 -18 -18 -18 -17 -17 -17 -17 -17 -17 -17 -17 -17 -17 -17 -17 -17 -17 -17 -17 -17 -17 -17 -17 -17 -17 -17 -17 -17 -17 -17 -17 -17 -17 -17 -18 -17 -17 -17
-17 -18 -18 -18 -18 -18 -18 -18 -18 -18 -18 -18 -18 -18 -18 -19 -18 -18 -18 -18 -18 -18 -18 -18 -18 -18 -18 -18 -18 -18 -18 -18 -18 -18 -18 -18 -18 -18 -18 -17 -17 -17 -17 -17 -17 -17 -17 -17 -17 -17 -17 -17 -17 -17 -17 -17 -17 -17 -17 -17 -17 -17 -17 -17 -17 -17 -17 -17 -17 -17 -17 -17 -17 -17
-18 -18 -18 -18 -18 -18 -18 -18 -18 -18 -18 -18 -18 -18 -18 -18 -18 -18 -18 -18 -18 -18 -18 -18 -18 -18 -18 -18 -18 -18 -18 -18 -18 -18 -18 -18 -18 -18 -18 -18 -18 -18 -18 -18 -18 -18 -17 -17 -18 -18 -18 -18 -17 -17 -17 -17 -17 -17 -17 -17 -17 -17 -17 -17 -17 -17 -17 -17 -17 -17 -17 -17 -17 -17
-18 -18 -18 -18 -18 -18 -18 -18 -18 -18 -18 -18 -18 -18 -18 -18 -18 -18 -18 -18 -18 -18 -18 -18 -18 -18 -18 -18 -18 -18 -18 -18 -18 -18 -18 -18 -18 -18 -18 -18 -18 -18 -18 -18 -18 -18 -18 -18 -18 -18 -18 -18 -18 -18 -18 -18 -18 -18 -18 -18 -18 -18 -17 -17 -17 -17 -17 -17 -17 -17 -17 -17 -17 -17
-17 -18 -18 -18 -18 -18 -19 -18 -18 -18 -18 -18 -18 -18 -18 -18 -18 -18 -18 -18 -18 -18 -18 -18 -18 -18 -18 -18 -18 -18 -18 -18 -18 -18 -18 -18 -18 -18 -18 -18 -18 -18 -18 -18 -18 -18 -18 -18 -18 -18 -18 -18 -18 -18 -18 -18 -18 -18 -18 -18 -18 -18 -18 -18 -18 -18 -18 -17 -17 -17 -17 -17 -17 -17
-17 -18 -18 -18 -18 -18 -18 -18 -18 -18 -18 -18 -18 -18 -18 -18 -18 -18 -18 -18 -18 -18 -18 -18 -18 -18 -18 -18 -18 -18 -19 -18 -18 -18 -18 -18 -18 -18 -18 -18 -18 -18 -18 -18 -18 -18 -19 -18 -18 -18 -19 -19 -19 -19 -19 -19 -18 -18 -18 -18 -18 -18 -18 -18 -18 -18 -18 -18 -18 -18 -18 -18 -18 -18
-17 -17 -17 -17 -18 -18 -18 -18 -18 -18 -18 -18 -18 -18 -18 -19 -19 -18 -18 -18 -18 -18 -18 -18 -18 -19 -19 -19 -19 -19 -19 -19 -18 -18 -18 -18 -18 -18 -18 -18 -18 -18 -18 -18 -18 -18 -18 -18 -18 -19 -19 -19 -19 -19 -19 -19 -19 -19 -19 -19 -19 -19 -18 -18 -18 -18 -18 -18 -18 -18 -18 -18 -18 -18
-17 -17 -17 -17 -18 -18 -18 -18 -18 -18 -18 -18 -19 -19 -19 -18 -19 -18 -18 -18 -18 -18 -19 -19 -19 -19 -19 -19 -19 -19 -19 -19 -18 -18 -18 -18 -18 -18 -18 -18 -18 -18 -18 -18 -18 -18 -18 -18 -18 -19 -19 -19 -19 -19 -19 -19 -19 -19 -19 -19 -19 -19 -19 -19 -18 -18 -18 -18 -18 -18 -18 -18 -18 -18
-18 -18 -17 -17 -18 -18 -18 -18 -18 -18 -18 -19 -19 -19 -19 -19 -19 -19 -18 -18 -18 -18 -19 -19 -19 -19 -19 -19 -19 -19 -19 -19 -19 -19 -19 -19 -19 -19 -19 -19 -19 -19 -19 -18 -18 -18 -18 -18 -18 -19 -19 -19 -20 -20 -19 -19 -19 -19 -19 -19 -19 -19 -19 -19 -19 -19 -18 -18 -18 -18 -18 -18 -18 -18
-18 -18 -18 -18 -18 -18 -18 -18 -18 -18 -18 -18 -18 -18 -19 -19 -19 -19 -19 -19 -19 -19 -19 -19 -19 -19 -19 -19 -19 -19 -19 -19 -19 -19 -19 -19 -19 -19 -19 -19 -19 -19 -19 -19 -19 -18 -18 -19 -19 -19 -19 -20 -20 -20 -20 -19 -19 -19 -19 -19 -19 -19 -19 -19 -19 -19 -18 -18 -18 -18 -18 -18 -18 -18
-18 -18 -18 -18 -18 -18 -18 -19 -19 -19 -18 -18 -18 -18 -19 -19 -20 -20 -20 -19 -19 -19 -19 -19 -20 -20 -20 -20 -20 -20 -20 -20 -20 -20 -20 -20 -19 -19 -19 -19 -19 -19 -19 -19 -19 -19 -19 -19 -19 -19 -19 -20 -20 -20 -20 -20 -20 -19 -19 -19 -19 -19 -19 -19 -19 -19 -18 -18 -18 -18 -18 -18 -18 -18
-19 -19 -19 -19 -19 -19 -19 -19 -19 -19 -19 -19 -19 -19 -19 -19 -20 -20 -20 -20 -20 -20 -20 -20 -20 -20 -20 -20 -20 -20 -20 -20 -20 -20 -20 -20 -20 -19 -19 -19 -20 -20 -20 -20 -20 -19 -19 -19 -19 -19 -20 -20 -20 -20 -20 -20 -20 -20 -19 -19 -19 -19 -19 -19 -19 -19 -19 -19 -19 -19 -19 -19 -18 -18
-19 -19 -19 -19 -19 -19 -19 -19 -19 -19 -19 -19 -19 -19 -19 -20 -20 -20 -20 -20 -20 -20 -20 -20 -20 -20 -20 -20 -20 -20 -20 -20 -20 -20 -20 -20 -20 -20 -20 -20 -20 -20 -20 -20 -20 -20 -20 -20 -20 -20 -20 -20 -20 -20 -20 -20 -20 -20 -20 -19 -19 -19 -19 -19 -19 -19 -19 -19 -19 -19 -19 -19 -19 -19
-19 -19 -19 -19 -19 -19 -19 -19 -19 -19 -19 -19 -19 -19 -20 -20 -20 -20 -20 -20 -20 -20 -21 -21 -21 -21 -21 -20 -20 -20 -20 -20 -20 -20 -20 -20 -20 -20 -21 -21 -21 -21 -21 -21 -20 -20 -20 -20 -20 -20 -20 -20 -20 -20 -20 -20 -20 -20 -20 -20 -20 -20 -20 -20 -20 -20 -20 -20 -20 -20 -20 -20 -20 -20
-19 -19 -19 -19 -19 -19 -19 -19 -19 -20 -20 -20 -20 -20 -20 -20 -20 -20 -20 -20 -21 -21 -21 -21 -21 -21 -21 -20 -20 -20 -21 -21 -20 -20 -20 -21 -21 -21 -21 -21 -21 -21 -21 -21 -21 -20 -20 -20 -20 -20 -20 -19 -19 -19 -19 -20 -20 -20 -20 -20 -20 -20 -20 -20 -20 -21 -20 -20 -20 -21 -21 -21 -20 -20
-19 -19 -19 -19 -19 -19 -20 -20 -20 -20 -20 -20 -20 -20 -20 -20 -21 -21 -21 -21 -21 -21 -21 -21 -21 -21 -21 -21 -21 -21 -21 -21 -21 -21 -21 -21 -21 -21 -21 -21 -21 -21 -21 -21 -21 -20 -20 -20 -20 -19 -19 -19 -19 -19 -20 -20 -21 -21 -21 -21 -21 -21 -21 -21 -21 -21 -21 -21 -21 -21 -21 -21 -21 -21
-20 -20 -19 -19 -19 -20 -20 -20 -20 -20 -20 -20 -21 -21 -21 -21 -21 -21 -21 -21 -21 -21 -21 -21 -21 -21 -21 -21 -21 -21 -21 -21 -21 -21 -21 -21 -21 -21 -21 -21 -21 -21 -21 -21 -21 -20 -20 -20 -20 -20 -20 -20 -20 -20 -21 -21 -21 -22 -22 -22 -22 -22 -22 -22 -22 -21 -21 -21 -21 -21 -21 -22 -22 -21
-20 -20 -19 -20 -20 -20 -20 -20 -20 -20 -21 -21 -21 -21 -21 -21 -21 -21 -21 -21 -21 -21 -21 -21 -21 -21 -21 -21 -21 -21 -21 -21 -21 -21 -21 -21 -21 -21 -21 -21 -21 -21 -21 -21 -21 -20 -20 -20 -20 -20 -21 -21 -21 -21 -22 -22 -22 -22 -22 -22 -22 -22 -22 -22 -22 -22 -22 -22 -22 -22 -22 -22 -22 -22
-20 -20 -20 -20 -20 -20 -21 -21 -21 -21 -21 -21 -21 -21 -21 -21 -21 -22 -22 -21 -21 -21 -21 -21 -21 -21 -21 -21 -21 -21 -21 -21 -21 -21 -21 -21 -21 -21 -21 -21 -21 -21 -21 -21 -21 -21 -21 -21 -21 -21 -22 -22 -22 -22 -22 -22 -22 -22 -22 -22 -22 -22 -22 -22 -22 -22 -22 -22 -22 -22 -22 -22 -22 -22
-20 -20 -20 -20 -20 -21 -21 -21 -21 -21 -21 -21 -21 -21 -21 -21 -22 -22 -22 -22 -22 -22 -22 -22 -22 -21 -21 -21 -22 -22 -22 -22 -22 -22 -22 -22 -22 -22 -22 -22 -22 -22 -21 -21 -21 -21 -21 -21 -22 -22 -22 -22 -22 -22 -22 -22 -22 -22 -22 -22 -22 -22 -22 -22 -22 -22 -22 -22 -22 -22 -22 -22 -22 -22
-21 -21 -21 -21 -21 -21 -21 -21 -21 -21 -22 -22 -22 -22 -22 -22 -22 -22 -22 -22 -22 -22 -22 -22 -22 -21 -22 -22 -22 -22 -22 -22 -22 -22 -22 -22 -22 -22 -22 -22 -22 -22 -22 -21 -21 -21 -22 -22 -22 -22 -22 -23 -23 -22 -22 -22 -22 -22 -22 -22 -22 -23 -23 -23 -22 -22 -22 -22 -22 -22 -22 -22 -22 -22
-21 -21 -21 -21 -21 -21 -22 -22 -21 -22 -22 -22 -22 -22 -22 -22 -22 -22 -22 -22 -22 -22 -22 -22 -22 -22 -22 -22 -22 -22 -22 -22 -22 -22 -22 -22 -22 -22 -22 -22 -22 -22 -22 -22 -22 -22 -22 -22 -23 -23 -23 -23 -22 -22 -22 -22 -22 -22 -22 -22 -23 -23 -23 -22 -22 -22 -22 -22 -22 -22 -22 -22 -22 -22
-21 -21 -21 -21 -21 -21 -21 -22 -22 -22 -22 -22 -22 -23 -22 -22 -22 -22 -22 -22 -22 -22 -22 -22 -22 -22 -22 -22 -22 -22 -22 -22 -22 -22 -22 -22 -22 -22 -22 -22 -22 -22 -22 -22 -22 -23 -23 -23 -23 -23 -23 -23 -22 -22 -22 -22 -22 -22 -22 -23 -23 -23 -22 -22 -22 -22 -22 -22 -22 -22 -22 -22 -22 -22
-21 -21 -21 -21 -21 -22 -22 -22 -22 -22 -22 -22 -23 -23 -23 -23 -22 -22 -22 -23 -23 -23 -23 -23 -23 -23 -23 -22 -22 -22 -22 -22 -22 -22 -22 -23 -23 -22 -22 -22 -22 -22 -22 -23 -23 -23 -23 -23 -23 -23 -23 -23 -22 -22 -22 -22 -22 -22 -23 -23 -23 -22 -22 -22 -22 -22 -22 -22 -22 -22 -22 -22 -22 -23
-22 -22 -22 -21 -22 -22 -22 -22 -22 -22 -23 -23 -23 -23 -23 -23 -23 -23 -23 -23 -23 -23 -23 -23 -23 -23 -23 -23 -23 -23 -23 -23 -23 -23 -23 -23 -22 -22 -22 -22 -22 -23 -23 -23 -23 -23 -23 -23 -23 -23 -23 -23 -22 -22 -22 -22 -22 -22 -23 -22 -22 -22 -22 -22 -22 -22 -22 -22 -22 -22 -22 -23 -23 -23
-22 -22 -22 -22 -22 -22 -22 -22 -23 -23 -23 -24 -24 -24 -24 -23 -23 -23 -23 -23 -23 -23 -23 -23 -23 -23 -23 -23 -23 -23 -23 -23 -23 -23 -23 -22 -22 -22 -23 -23 -23 -23 -23 -23 -23 -23 -23 -23 -23 -23 -23 -23 -23 -23 -22 -22 -22 -22 -22 -22 -22 -22 -22 -22 -22 -22 -22 -22 -22 -22 -23 -23 -23 -23
-23 -23 -22 -22 -23 -23 -23 -23 -24 -24 -24 -24 -24 -24 -24 -23 -23 -24 -24 -24 -24 -24 -24 -23 -23 -24 -24 -24 -24 -23 -23 -23 -23 -23 -23 -23 -23 -23 -23 -23 -24 -24 -23 -23 -23 -23 -23 -23 -23 -23 -23 -23 -23 -23 -23 -22 -22 -22 -22 -22 -22 -22 -22 -22 -22 -22 -22 -22 -22 -23 -23 -23 -23 -23
-23 -23 -23 -23 -23 -23 -24 -24 -24 -24 -24 -24 -24 -24 -24 -24 -24 -24 -24 -24 -24 -24 -24 -24 -24 -24 -24 -24 -24 -23 -23 -23 -23 -23 -23 -23 -23 -23 -24 -24 -24 -24 -24 -23 -23 -23 -23 -23 -23 -23 -23 -23 -23 -23 -23 -23 -22 -22 -22 -22 -22 -22 -22 -22 -22 -22 -22 -23 -23 -23 -24 -24 -24 -24
-23 -23 -23 -24 -24 -24 -24 -24 -24 -24 -24 -24 -24 -24 -24 -24 -24 -24 -24 -24 -24 -24 -24 -24 -24 -24 -24 -24 -23 -23 -23 -23 -23 -23 -23 -23 -24 -24 -24 -24 -24 -24 -24 -24 -23 -23 -23 -23 -23 -23 -23 -23 -23 -23 -23 -23 -23 -22 -22 -22 -22 -22 -22 -22 -22 -22 -23 -23 -23 -24 -24 -24 -24 -24
-23 -24 -24 -24 -24 -24 -25 -25 -24 -24 -24 -24 -24 -24 -24 -24 -24 -24 -24 -24 -24 -24 -24 -24 -24 -24 -24 -23 -23 -23 -23 -23 -24 -24 -24 -24 -24 -24 -24 -24 -24 -24 -24 -24 -24 -23 -23 -23 -23 -23 -23 -23 -23 -23 -23 -23 -23 -23 -23 -22 -22 -22 -22 -22 -22 -23 -23 -24 -24 -24 -24 -24 -24 -24
-24 -24 -25 -25 -25 -25 -25 -25 -25 -25 -25 -25 -25 -25 -24 -24 -24 -24 -24 -24 -25 -25 -24 -24 -24 -24 -24 -24 -24 -24 -24 -24 -24 -24 -24 -24 -24 -24 -24 -24 -24 -24 -24 -24 -24 -23 -23 -23 -23 -23 -23 -23 -23 -23 -23 -23 -23 -23 -22 -22 -22 -22 -22 -22 -22 -23 -23 -24 -24 -24 -24 -24 -24 -25
-25 -25 -25 -25 -25 -25 -25 -25 -25 -25 -25 -25 -25 -25 -25 -24 -24 -24 -25 -25 -25 -25 -24 -24 -24 -24 -24 -24 -24 -24 -24 -24 -24 -24 -24 -24 -24 -24 -24 -24 -24 -24 -24 -24 -24 -23 -23 -23 -23 -23 -23 -23 -23 -23 -23 -23 -23 -23 -22 -22 -22 -22 -22 -22 -23 -23 -24 -24 -24 -24 -24 -24 -24 -24
-25 -25 -25 -25 -25 -25 -25 -25 -25 -25 -25 -25 -25 -25 -25 -25 -25 -25 -25 -25 -25 -25 -25 -24 -24 -24 -24 -24 -24 -24 -24 -24 -24 -24 -24 -24 -24 -25 -25 -24 -24 -24 -24 -24 -24 -23 -23 -23 -23 -23 -23 -23 -23 -23 -23 -23 -23 -23 -23 -23 -23 -22 -22 -23 -23 -23 -24 -24 -24 -24 -24 -25 -24 -24
-26 -26 -25 -25 -25 -26 -25 -25 -25 -25 -25 -25 -25 -25 -25 -25 -25 -25 -25 -25 -25 -25 -25 -25 -25 -24 -24 -24 -24 -24 -24 -25 -25 -25 -25 -25 -25 -25 -25 -24 -24 -24 -24 -24 -24 -23 -23 -23 -23 -23 -23 -23 -23 -23 -23 -23 -23 -23 -23 -23 -23 -23 -22 -23 -23 -23 -24 -24 -24 -24 -25 -25 -25 -25
-26 -26 -26 -26 -26 -26 -26 -26 -26 -26 -26 -25 -25 -25 -25 -25 -25 -25 -25 -25 -25 -25 -25 -25 -25 -25 -25 -25 -25 -25 -25 -25 -25 -25 -25 -25 -25 -25 -25 -25 -24 -24 -24 -24 -24 -24 -23 -23 -23 -23 -23 -23 -23 -23 -23 -23 -23 -23 -23 -23 -23 -23 -23 -23 -23 -24 -24 -24 -24 -24 -25 -25 -25 -25
Height
5778 5778 5778 5778 5778 5778 5778 5779 5780 5780 5781 5781 5781 5782 5782 5782 5782 5782 5782 5782 5783 5783 5783 5783 5783 5783 5783 5783 5783 5783 5783 5783 5782 5782 5782 5781 5781 5780 5780 5779 5779 5779 5778 5778 5778 5777 5776 5776 5775 5774 5774 5773 5773 5773 5773 5772 5772 5772 5772 5771 5771 5771 5771 5770 5770 5769 5768 5768 5767 5766 5766 5765 5765 5764
5777 5776 5776 5776 5777 5777 5777 5777 5778 5778 5778 5779 5779 5780 5780 5780 5780 5780 5780 5780 5781 5781 5781 5781 5781 5781 5781 5781 5781 5780 5780 5780 5780 5780 5779 5779 5778 5778 5778 5778 5777 5777 5777 5776 5776 5775 5775 5774 5774 5773 5772 5772 5771 5771 5771 5770 5770 5770 5770 5769 5769 5769 5768 5768 5768 5767 5766 5766 5765 5765 5764 5763 5763 5762
5775 5775 5775 5775 5775 5775 5775 5775 5776 5776 5776 5777 5777 5778 5778 5778 5778 5778 5779 5779 5779 5779 5779 5779 5779 5779 5779 5779 5778 5778 5778 5777 5777 5777 5777 5776 5776 5776 5776 5775 5775 5775 5774 5774 5774 5773 5773 5772 5772 5771 5771 5770 5770 5769 5769 5768 5768 5768 5767 5767 5767 5766 5766 5765 5765 5764 5764 5763 5763 5762 5762 5761 5761 5760
5773 5773 5773 5773 5773 5773 5773 5773 5773 5774 5774 5775 5775 5775 5775 5775 5775 5776 5776 5777 5777 5776 5777 5777 5777 5776 5776 5776 5776 5776 5776 5775 5775 5775 5774 5774 5774 5773 5773 5773 5773 5773 5772 5772 5772 5771 5771 5770 5770 5769 5769 5768 5768 5767 5767 5766 5766 5765 5765 5765 5764 5764 5763 5763 5762 5762 5761 5760 5760 5759 5759 5759 5758 5758
5770 5770 5770 5770 5770 5771 5771 5771 5771 5772 5772 5772 5772 5772 5772 5772 5773 5773 5773 5774 5774 5774 5774 5775 5774 5774 5774 5774 5774 5774 5773 5773 5773 5773 5772 5772 5772 5771 5771 5771 5771 5770 5770 5770 5769 5769 5768 5768 5767 5767 5767 5766 5766 5765 5764 5764 5763 5763 5762 5762 5761 5761 5761 5760 5759 5759 5758 5758 5757 5757 5756 5756 5755 5755
5767 5767 5767 5767 5768 5768 5768 5769 5769 5769 5769 5769 5770 5771 5771 5771 5771 5771 5771 5771 5771 5771 5772 5772 5772 5772 5772 5771 5771 5771 5771 5771 5771 5770 5770 5770 5770 5769 5769 5769 5768 5768 5768 5767 5767 5767 5766 5766 5765 5764 5764 5763 5763 5762 5761 5761 5760 5760 5759 5758 5758 5757 5757 5757 5756 5755 5755 5754 5754 5753 5753 5753 5752 5752
5765 5765 5765 5765 5765 5766 5766 5767 5767 5767 5767 5767 5768 5768 5769 5769 5769 5768 5769 5769 5769 5770 5769 5769 5770 5770 5770 5769 5769 5769 5769 5769 5768 5768 5768 5768 5768 5767 5767 5766 5766 5765 5765 5765 5764 5763 5763 5763 5762 5762 5761 5760 5759 5759 5758 5757 5756 5756 5755 5754 5754 5754 5753 5753 5752 5752 5751 5751 5750 5750 5749 5749 5749 5748
5762 5762 5762 5762 5763 5764 5764 5765 5765 5765 5765 5765 5765 5766 5767 5767 5767 5767 5767 5767 5767 5768 5768 5767 5767 5768 5768 5768 5767 5767 5766 5766 5766 5765 5765 5765 5766 5765 5765 5765 5764 5763 5763 5762 5761 5760 5760 5759 5758 5758 5757 5756 5756 5755 5754 5753 5752 5751 5750 5750 5749 5749 5749 5748 5748 5747 5747 5746 5746 5746 5745 5745 5744 5744
5760 5760 5760 5760 5761 5761 5762 5762 5762 5762 5763 5763 5762 5763 5763 5764 5765 5765 5765 5765 5765 5765 5765 5765 5765 5765 5765 5765 5765 5765 5764 5764 5763 5763 5763 5763 5763 5763 5763 5762 5762 5761 5761 5760 5759 5758 5756 5755 5754 5754 5753 5752 5752 5751 5750 5749 5748 5747 5746 5745 5745 5744 5744 5743 5743 5742 5742 5741 5741 5741 5740 5740 5740 5740
5759 5758 5758 5758 5758 5758 5758 5759 5759 5760 5760 5761 5761 5761 5760 5760 5761 5762 5763 5764 5764 5763 5763 5763 5763 5763 5763 5763 5763 5763 5762 5761 5761 5760 5760 5760 5760 5760 5759 5759 5759 5758 5758 5757 5756 5755 5754 5752 5751 5750 5749 5748 5747 5746 5745 5744 5744 5743 5742 5741 5740 5739 5739 5738 5738 5737 5736 5736 5735 5735 5734 5734 5734 5734
5757 5757 5757 5756 5756 5756 5756 5756 5756 5757 5757 5758 5759 5759 5758 5758 5757 5757 5758 5759 5760 5760 5760 5760 5760 5760 5760 5760 5760 5759 5759 5758 5758 5758 5757 5757 5756 5756 5756 5755 5755 5754 5753 5752 5752 5751 5750 5749 5748 5746 5745 5743 5742 5741 5740 5739 5738 5737 5736 5735 5735 5734 5733 5733 5732 5732 5731 5730 5730 5729 5728 5728 5728 5727
5755 5755 5754 5754 5754 5754 5754 5753 5753 5754 5754 5755 5755 5756 5756 5756 5755 5755 5754 5755 5755 5755 5755 5756 5757 5757 5757 5756 5756 5755 5755 5755 5755 5754 5754 5754 5753 5752 5751 5751 5750 5750 5749 5748 5746 5746 5746 5745 5743 5742 5741 5739 5738 5736 5735 5734 5733 5732 5731 5730 5729 5728 5727 5726 5726 5725 5725 5724 5724 5723 5722 5721 5721 5720
5753 5753 5752 5752 5751 5752 5751 5751 5751 5751 5751 5751 5751 5752 5753 5752 5752 5752 5752 5751 5751 5751 5751 5751 5752 5753 5753 5753 5752 5751 5751 5751 5751 5750 5750 5750 5749 5748 5746 5746 5746 5745 5744 5743 5741 5740 5740 5739 5737 5736 5735 5734 5733 5731 5730 5729 5727 5726 5725 5724 5723 5722 5720 5719 5719 5718 5718 5717 5717 5716 5715 5715 5714 5713
5751 5751 5750 5750 5749 5749 5748 5748 5748 5748 5748 5747 5747 5748 5748 5748 5748 5748 5748 5748 5748 5747 5747 5747 5747 5748 5748 5748 5748 5747 5747 5747 5747 5746 5746 5745 5745 5744 5743 5741 5741 5740 5740 5739 5737 5735 5734 5733 5731 5730 5729 5728 5726 5725 5724 5723 5721 5720 5719 5718 5717 5715 5714 5712 5711 5710 5710 5709 5709 5708 5708 5707 5706 5705
5748 5748 5748 5748 5747 5746 5746 5745 5745 5745 5745 5745 5744 5744 5744 5744 5744 5744 5744 5744 5744 5743 5743 5743 5744 5743 5743 5743 5743 5743 5743 5743 5742 5742 5742 5741 5741 5740 5739 5737 5736 5735 5735 5734 5733 5730 5729 5728 5726 5723 5722 5721 5720 5718 5717 5716 5715 5714 5713 5712 5711 5709 5707 5706 5704 5703 5702 5701 5700 5700 5699 5699 5698 5697
5744 5744 5744 5744 5743 5743 5743 5742 5742 5742 5742 5742 5741 5741 5741 5741 5740 5739 5739 5740 5740 5739 5739 5738 5739 5738 5738 5738 5738 5738 5738 5738 5737 5737 5736 5736 5735 5734 5733 5732 5731 5730 5729 5729 5728 5726 5723 5722 5720 5718 5716 5714 5713 5711 5709 5708 5706 5706 5705 5704 5703 5701 5700 5699 5697 5696 5694 5693 5692 5691 5690 5690 5689 5689
5739 5740 5740 5740 5739 5739 5739 5739 5738 5738 5738 5738 5738 5738 5738 5738 5737 5736 5735 5735 5735 5735 5734 5733 5733 5733 5733 5732 5732 5732 5732 5732 5732 5731 5731 5730 5729 5728 5727 5726 5725 5724 5723 5723 5722 5720 5717 5716 5714 5712 5710 5708 5706 5704 5702 5700 5698 5697 5696 5695 5694 5692 5692 5691 5690 5689 5687 5686 5684 5683 5682 5681 5680 5680
5735 5735 5735 5735 5735 5735 5735 5734 5734 5734 5734 5734 5733 5733 5733 5733 5733 5732 5731 5731 5730 5729 5729 5728 5728 5728 5728 5727 5727 5727 5727 5726 5726 5725 5725 5724 5723 5722 5720 5719 5718 5717 5717 5717 5716 5713 5711 5710 5708 5705 5703 5702 5700 5697 5695 5694 5692 5690 5688 5686 5685 5683 5682 5682 5681 5680 5679 5678 5676 5675 5673 5672 5672 5671
5730 5730 5730 5730 5729 5730 5730 5729 5728 5729 5729 5728 5728 5727 5727 5728 5727 5726 5726 5725 5725 5724 5724 5723 5723 5723 5723 5722 5722 5722 5721 5721 5720 5719 5718 5718 5717 5715 5714 5712 5711 5710 5709 5709 5708 5707 5705 5704 5701 5699 5697 5695 5693 5690 5689 5687 5685 5683 5681 5678 5676 5674 5673 5672 5671 5671 5670 5668 5667 5666 5665 5664 5663 5662
5725 5725 5725 5725 5724 5723 5724 5724 5723 5723 5723 5722 5722 5722 5721 5721 5721 5720 5720 5719 5719 5718 5718 5717 5717 5717 5717 5717 5717 5716 5715 5715 5714 5713 5712 5711 5711 5709 5708 5707 5705 5704 5703 5702 5700 5699 5699 5697 5695 5692 5690 5688 5685 5683 5681 5679 5677 5674 5672 5670 5668 5667 5665 5663 5662 5660 5659 5658 5657 5655 5654 5653 5652 5652
5720 5720 5720 5719 5719 5718 5717 5717 5717 5718 5717 5716 5716 5716 5715 5715 5714 5713 5713 5713 5713 5712 5712 5712 5712 5712 5711 5711 5711 5710 5709 5709 5708 5707 5706 5705 5704 5703 5702 5701 5699 5697 5696 5695 5693 5692 5691 5690 5688 5686 5683 5680 5677 5675 5673 5670 5667 5665 5663 5662 5660 5659 5656 5654 5653 5651 5649 5647 5646 5644 5643 5642 5641 5640
5715 5714 5713 5713 5712 5712 5711 5710 5710 5711 5711 5710 5710 5710 5710 5709 5707 5706 5706 5707 5706 5706 5706 5706 5706 5706 5705 5705 5705 5704 5704 5703 5702 5700 5699 5698 5697 5696 5695 5694 5693 5691 5689 5688 5686 5685 5684 5681 5679 5677 5675 5672 5668 5666 5664 5661 5658 5655 5654 5653 5651 5649 5647 5645 5643 5641 5639 5637 5635 5634 5632 5630 5629 5629
5708 5707 5707 5706 5705 5705 5704 5702 5703 5704 5704 5704 5704 5704 5704 5703 5701 5700 5700 5700 5700 5700 5700 5700 5700 5700 5699 5699 5698 5698 5697 5696 5695 5694 5693 5692 5691 5690 5689 5687 5686 5684 5681 5680 5679 5677 5676 5673 5671 5668 5667 5665 5661 5657 5654 5652 5648 5646 5645 5643 5641 5639 5637 5635 5633 5631 5629 5627 5625 5623 5621 5620 5619 5618
5699 5699 5698 5699 5698 5697 5696 5695 5695 5696 5696 5696 5697 5697 5698 5696 5694 5694 5695 5694 5694 5695 5695 5694 5694 5694 5693 5692 5692 5691 5690 5689 5688 5688 5687 5686 5685 5684 5682 5680 5678 5676 5674 5672 5671 5670 5668 5666 5663 5660 5658 5657 5655 5651 5647 5643 5639 5637 5636 5634 5631 5629 5627 5625 5623 5620 5619 5617 5615 5613 5611 5610 5608 5608
5692 5691 5690 5690 5690 5689 5688 5688 5687 5687 5688 5688 5689 5690 5691 5689 5688 5688 5689 5689 5689 5689 5689 5688 5688 5687 5687 5687 5686 5685 5684 5683 5682 5681 5681 5680 5678 5677 5675 5673 5671 5669 5667 5665 5664 5662 5660 5658 5655 5653 5650 5648 5645 5643 5640 5634 5629 5628 5627 5625 5623 5620 5618 5616 5613 5611 5609 5608 5606 5604 5602 5600 5599 5598
5685 5684 5682 5682 5681 5681 5681 5680 5679 5680 5680 5681 5681 5682 5683 5681 5681 5682 5683 5683 5683 5682 5682 5682 5681 5681 5681 5681 5680 5679 5677 5676 5676 5675 5675 5673 5672 5670 5669 5667 5665 5663 5661 5659 5656 5654 5652 5649 5646 5643 5641 5638 5635 5633 5630 5625 5619 5617 5616 5615 5613 5611 5609 5607 5605 5602 5601 5599 5597 5594 5592 5590 5589 5588
5677 5676 5675 5675 5674 5673 5673 5673 5673 5673 5673 5673 5674 5675 5675 5675 5675 5675 5676 5676 5676 5676 5675 5675 5674 5674 5675 5674 5674 5673 5672 5671 5671 5670 5669 5668 5666 5665 5663 5661 5659 5656 5654 5651 5648 5646 5643 5640 5637 5633 5631 5628 5626 5623 5620 5616 5611 5608 5606 5605 5604 5602 5601 5599 5597 5595 5593 5591 5588 5585 5583 5582 5580 5579
5668 5668 5668 5668 5665 5665 5666 5666 5666 5667 5666 5666 5667 5668 5668 5668 5668 5669 5669 5669 5669 5669 5669 5669 5669 5669 5668 5667 5667 5667 5666 5666 5665 5664 5663 5661 5659 5658 5656 5654 5652 5649 5646 5643 5640 5637 5635 5632 5628 5625 5621 5619 5616 5614 5612 5608 5605 5602 5600 5597 5595 5594 5593 5591 5589 5587 5585 5583 5581 5578 5576 5574 5573 5571
5660 5660 5660 5659 5657 5657 5658 5658 5658 5658 5658 5658 5659 5660 5661 5662 5662 5662 5663 5663 5662 5663 5663 5663 5663 5663 5662 5661 5661 5661 5661 5660 5659 5658 5656 5654 5653 5651 5650 5647 5645 5642 5640 5637 5633 5630 5627 5624 5621 5618 5615 5612 5609 5607 5605 5602 5598 5596 5595 5592 5588 5586 5585 5584 5582 5580 5578 5577 5574 5572 5570 5568 5567 5565
5651 5651 5650 5650 5649 5649 5649 5649 5650 5649 5650 5651 5652 5653 5654 5655 5655 5656 5656 5656 5656 5657 5657 5657 5657 5656 5656 5655 5655 5655 5655 5654 5653 5651 5650 5648 5647 5645 5644 5641 5639 5636 5633 5630 5627 5624 5621 5617 5614 5612 5609 5606 5603 5601 5599 5596 5592 5589 5589 5587 5584 5580 5579 5578 5576 5574 5572 5571 5569 5566 5564 5562 5561 5559
5642 5641 5641 5641 5640 5640 5641 5641 5641 5641 5642 5643 5644 5646 5647 5647 5648 5648 5649 5649 5649 5650 5650 5650 5650 5650 5650 5650 5649 5649 5649 5648 5647 5645 5644 5642 5641 5639 5637 5635 5632 5629 5626 5622 5620 5617 5614 5611 5608 5605 5603 5600 5597 5595 5592 5590 5587 5584 5582 5581 5579 5577 5575 5573 5571 5569 5567 5566 5563 5560 5557 5556 5554 5552
5634 5632 5633 5633 5632 5632 5633 5633 5633 5634 5635 5636 5638 5639 5640 5640 5641 5641 5642 5642 5643 5642 5642 5642 5643 5643 5643 5643 5643 5643 5642 5642 5641 5640 5638 5636 5635 5633 5631 5629 5626 5623 5620 5616 5614 5611 5609 5606 5603 5600 5597 5594 5591 5589 5586 5584 5582 5580 5578 5576 5575 5573 5570 5569 5567 5565 5562 5560 5558 5554 5551 5549 5548 5545
5627 5625 5625 5625 5624 5624 5625 5626 5626 5627 5628 5629 5631 5632 5633 5634 5634 5635 5635 5635 5635 5635 5635 5636 5637 5637 5637 5637 5637 5637 5636 5635 5635 5634 5632 5631 5629 5627 5625 5622 5619 5617 5614 5611 5609 5607 5604 5601 5598 5594 5591 5588 5586 5583 5581 5579 5577 5576 5574 5573 5571 5568 5566 5564 5562 5560 5557 5555 5553 5549 5545 5543 5541 5539
5619 5618 5618 5617 5616 5616 5617 5618 5619 5621 5622 5623 5623 5625 5626 5627 5628 5629 5629 5628 5628 5629 5630 5631 5631 5631 5631 5631 5631 5630 5630 5629 5629 5628 5626 5625 5623 5621 5619 5616 5613 5611 5609 5607 5604 5602 5600 5597 5593 5589 5586 5583 5580 5579 5577 5575 5574 5573 5571 5569 5567 5565 5562 5560 5557 5555 5552 5550 5547 5544 5540 5537 5535 5533
5613 5611 5610 5609 5609 5610 5611 5612 5613 5615 5616 5616 5617 5618 5619 5620 5621 5622 5622 5622 5623 5624 5625 5625 5625 5625 5625 5625 5625 5624 5624 5624 5623 5622 5621 5619 5618 5615 5613 5610 5608 5606 5604 5602 5600 5598 5595 5592 5589 5585 5581 5578 5575 5574 5573 5572 5571 5570 5568 5565 5563 5561 5559 5556 5553 5550 5547 5544 5541 5538 5534 5531 5530 5528
5607 5603 5601 5601 5602 5604 5605 5607 5608 5609 5610 5610 5610 5612 5613 5615 5616 5617 5617 5617 5618 5618 5619 5619 5620 5620 5619 5619 5619 5619 5619 5618 5618 5617 5615 5614 5612 5609 5607 5605 5603 5601 5599 5597 5595 5593 5591 5587 5584 5581 5577 5574 5572 5570 5568 5567 5567 5566 5564 5562 5560 5557 5554 5551 5548 5545 5542 5538 5535 5532 5529 5526 5524 5522
5601 5597 5594 5594 5596 5598 5599 5601 5602 5603 5604 5604 5604 5606 5609 5610 5611 5612 5612 5612 5612 5613 5614 5614 5615 5615 5615 5615 5615 5615 5614 5613 5613 5611 5610 5608 5606 5604 5602 5600 5598 5596 5595 5593 5591 5589 5586 5583 5579 5577 5574 5572 5570 5567 5565 5564 5563 5562 5561 5558 5556 5554 5551 5547 5543 5540 5536 5533 5530 5527 5524 5521 5519 5518
5594 5592 5590 5589 5591 5592 5593 5594 5595 5597 5598 5599 5600 5602 5604 5606 5606 5606 5606 5607 5608 5609 5609 5609 5610 5610 5610 5610 5610 5610 5609 5608 5607 5606 5604 5603 5601 5599 5598 5596 5594 5592 5591 5589 5587 5584 5581 5578 5575 5573 5571 5569 5568 5566 5563 5562 5560 5559 5557 5555 5553 5550 5547 5543 5539 5535 5531 5527 5524 5521 5519 5517 5515 5514
5585 5585 5585 5585 5585 5586 5587 5588 5590 5591 5593 5594 5595 5597 5599 5600 5601 5601 5601 5603 5604 5604 5604 5605 5605 5605 5605 5605 5605 5604 5603 5602 5601 5600 5599 5598 5596 5595 5594 5592 5591 5589 5587 5585 5583 5580 5577 5574 5572 5569 5568 5566 5565 5564 5562 5560 5558 5556 5554 5552 5550 5547 5544 5540 5535 5531 5527 5523 5519 5517 5515 5514 5512 5511
5576 5577 5579 5580 5581 5581 5582 5583 5584 5586 5587 5589 5591 5593 5594 5595 5596 5597 5597 5598 5599 5600 5600 5600 5600 5600 5600 5600 5600 5599 5598 5597 5596 5595 5594 5593 5592 5591 5590 5589 5587 5585 5583 5581 5579 5577 5574 5571 5568 5566 5564 5563 5562 5561 5560 5558 5556 5554 5552 5549 5547 5544 5541 5537 5532 5528 5524 5520 5517 5516 5514 5513 5511 5510
5568 5569 5572 5574 5576 5577 5577 5578 5579 5581 5583 5585 5587 5588 5590 5591 5592 5594 5594 5594 5595 5595 5596 5596 5596 5596 5596 5595 5595 5594 5593 5592 5592 5591 5590 5589 5588 5587 5586 5585 5584 5582 5580 5578 5576 5574 5571 5568 5565 5563 5561 5560 5559 5558 5557 5555 5553 5551 5549 5546 5543 5541 5537 5534 5529 5526 5522 5519 5517 5515 5514 5512 5511 5510
5561 5562 5565 5569 5571 5572 5573 5573 5574 5576 5578 5580 5582 5583 5585 5587 5589 5590 5590 5590 5591 5591 5591 5591 5591 5591 5591 5591 5590 5590 5589 5588 5587 5587 5586 5585 5585 5584 5583 5582 5581 5579 5577 5575 5573 5571 5568 5565 5561 5559 5558 5557 5556 5555 5554 5552 5550 5548 5546 5543 5541 5538 5535 5531 5527 5524 5521 5519 5517 5516 5514 5513 5511 5510
5555 5556 5559 5563 5565 5566 5568 5570 5570 5572 5574 5576 5577 5579 5581 5583 5584 5585 5585 5586 5586 5587 5587 5587 5587 5587 5587 5587 5586 5585 5585 5584 5583 5583 5582 5582 5581 5580 5580 5579 5578 5576 5574 5572 5570 5568 5565 5562 5558 5556 5554 5553 5553 5552 5550 5549 5548 5546 5543 5541 5538 5536 5532 5529 5525 5523 5520 5518 5517 5515 5514 5513 5511 5510
5548 5549 5552 5556 5559 5561 5564 5566 5567 5568 5570 5572 5574 5576 5577 5578 5579 5580 5581 5581 5582 5582 5582 5582 5583 5583 5583 5583 5582 5581 5581 5580 5580 5579 5579 5578 5578 5578 5577 5576 5575 5573 5571 5569 5567 5565 5562 5559 5556 5553 5551 5550 5549 5548 5547 5546 5545 5543 5541 5539 5536 5533 5530 5527 5524 5521 5519 5517 5516 5515 5513 5512 5511 5509
5542 5544 5547 5550 5553 5557 5561 5564 5564 5564 5565 5567 5569 5571 5572 5573 5574 5575 5576 5578 5578 5578 5578 5579 5579 5579 5579 5579 5578 5578 5577 5577 5576 5576 5575 5575 5575 5575 5574 5573 5572 5570 5569 5566 5564 5562 5560 5557 5553 5550 5548 5547 5546 5545 5544 5544 5542 5541 5539 5537 5534 5531 5528 5525 5522 5520 5518 5516 5515 5513 5512 5511 5510 5508
Wind_Speed
12 12 12 12 11 11 10 10 9 9 8 8 7 6 7 8 8 8 8 9 9 9 10 10 10 10 10 10 10 10 10 10 10 10 10 11 11 11 11 11 12 12 12 13 13 12 12 12 12 12 12 12 12 12 12 12 12 13 13 14 14 14 15 15 15 16 16 16 16 16 16 16 16 17
10 10 10 10 9 9 9 8 8 7 7 7 7 7 7 7 8 8 8 9 9 10 10 10 10 10 10 11 11 11 11 11 11 12 12 12 12 12 12 12 12 12 13 13 13 14 13 13 13 13 13 13 13 13 14 14 14 14 15 15 16 16 16 16 17 17 17 17 17 18 18 18 18 18
9 9 9 8 7 7 7 7 7 7 7 6 6 7 7 8 9 9 9 10 10 11 11 11 11 11 11 12 12 13 13 13 14 13 13 13 13 13 13 13 13 13 13 13 14 14 14 15 15 15 15 15 15 16 16 16 16 16 16 17 17 17 18 18 18 18 19 19 19 19 19 19 19 19
9 9 8 7 7 7 7 7 7 7 6 6 6 7 8 9 10 11 11 11 11 12 12 12 12 13 14 14 14 15 15 15 16 15 15 15 14 14 14 13 13 13 13 14 14 14 15 15 15 16 16 17 17 17 18 18 18 18 18 18 18 19 19 19 19 19 19 20 20 20 20 20 20 20
9 9 9 8 9 9 9 9 8 7 7 8 8 9 9 11 12 12 13 13 13 13 13 13 14 15 16 16 16 16 16 17 17 17 16 16 16 16 15 14 14 14 14 15 15 15 15 16 16 16 17 17 18 19 19 20 20 20 20 21 21 21 21 20 20 20 20 21 21 21 21 21 21 21
11 10 10 10 10 11 11 11 10 9 10 11 11 11 11 12 13 14 14 15 14 14 14 14 15 16 17 17 17 17 17 17 17 17 18 17 16 16 16 15 15 16 16 16 16 16 17 17 18 18 19 20 20 21 22 22 22 23 23 23 23 23 23 23 23 23 23 22 22 22 22 22 22 22
11 10 10 10 10 10 10 10 11 11 13 14 14 13 13 13 14 16 16 16 15 15 16 17 17 17 17 18 18 18 18 17 17 18 18 17 17 17 17 18 18 18 19 19 20 20 20 21 21 22 23 24 24 25 25 26 26 27 27 27 27 27 27 27 26 26 26 25 25 24 24 24 24 23
11 10 9 9 9 9 9 10 11 12 14 15 16 15 15 15 15 17 17 17 17 17 18 18 19 18 18 18 18 19 19 19 19 19 19 18 18 18 18 19 20 20 21 22 23 24 25 25 25 26 26 27 28 28 29 30 31 31 32 32 32 32 32 32 32 31 30 29 29 28 28 27 27 26
10 9 9 9 9 9 10 11 12 13 14 16 17 17 18 18 17 17 18 18 19 20 21 21 21 21 21 20 20 20 21 21 21 21 20 20 20 20 19 20 20 20 22 23 25 26 27 29 29 30 30 31 32 32 33 34 34 35 35 36 36 37 37 37 37 37 36 35 34 33 33 32 32 31
12 11 11 11 11 12 13 13 13 14 15 16 17 19 20 21 21 21 20 20 20 21 22 23 23 23 23 23 23 23 23 23 23 23 23 23 23 23 23 23 23 24 25 26 27 27 28 29 31 32 34 34 35 36 36 37 38 38 38 39 39 39 40 40 41 41 41 40 40 39 38 38 38 37
15 15 15 15 16 16 17 17 17 17 17 17 17 19 20 22 24 24 24 23 23 23 23 24 24 24 25 25 25 25 25 25 24 24 25 25 26 26 27 27 28 28 28 28 29 29 30 31 33 35 36 38 38 39 39 40 40 41 41 41 41 41 41 42 42 42 43 44 44 44 44 44 44 44
19 18 18 19 20 20 21 22 21 21 20 20 19 20 21 23 25 26 27 26 26 26 26 25 25 24 25 26 26 27 27 27 27 27 27 27 28 29 30 31 31 31 31 31 32 33 34 36 37 39 40 41 42 42 43 43 43 43 43 43 43 44 44 44 43 43 44 44 45 46 47 47 48 48
22 21 21 22 23 23 24 24 25 24 24 24 23 22 22 23 25 26 27 27 28 28 29 28 27 26 26 26 28 29 30 30 30 30 30 29 30 30 31 33 33 34 34 35 37 39 40 40 40 40 40 41 42 43 44 45 45 45 45 45 45 46 46 46 47 46 46 47 47 47 48 48 49 50
25 24 24 24 24 25 26 27 27 27 27 27 26 25 25 25 27 27 27 27 28 28 29 29 29 29 28 29 30 32 32 32 32 32 31 31 31 32 33 34 36 37 37 38 39 41 44 44 43 42 42 42 42 43 44 45 46 46 47 47 47 48 49 49 50 50 51 51 50 51 51 51 51 51
28 27 27 26 25 25 27 28 28 28 29 29 29 28 27 28 29 30 29 29 29 30 30 30 30 31 32 32 32 33 33 34 34 34 34 34 34 34 35 36 38 40 41 41 41 41 44 46 46 46 46 46 46 46 46 47 47 48 48 49 49 50 51 52 53 54 54 54 54 54 54 54 54 54
29 30 29 29 28 27 27 28 28 29 29 30 31 31 30 30 31 32 32 32 32 33 34 34 34 35 36 36 35 34 34 34 35 36 36 36 36 36 37 38 39 42 44 44 44 44 45 47 48 49 49 49 49 50 50 49 49 49 49 49 50 51 51 52 53 54 54 55 55 55 55 56 56 56
32 32 32 31 31 30 30 30 31 31 30 30 31 32 32 32 33 35 36 36 36 36 36 36 36 37 38 38 36 34 33 34 35 36 37 38 38 39 40 42 43 45 46 47 47 47 48 49 50 50 49 49 49 49 49 49 49 50 50 50 50 50 50 51 51 51 52 52 53 54 55 55 56 56
34 33 34 35 35 34 35 36 36 36 35 34 34 34 35 35 35 37 39 40 40 39 38 36 35 35 36 36 35 34 36 38 39 39 40 41 41 42 43 45 45 46 47 48 49 51 51 51 51 50 49 49 48 48 48 48 49 50 50 51 51 51 51 51 51 51 51 51 52 53 54 55 55 56
37 37 38 40 40 38 38 39 40 40 38 38 39 40 39 38 37 38 40 41 42 41 39 37 35 34 35 37 38 40 41 42 42 42 42 42 43 43 44 45 47 48 50 51 53 53 52 50 50 50 51 50 50 50 50 50 51 52 52 53 53 53 53 53 53 53 53 53 54 55 55 56 57 57
41 40 41 42 43 43 42 42 42 41 39 40 42 44 44 41 39 38 40 41 42 42 41 40 38 38 40 42 43 43 42 41 41 41 41 42 43 44 45 47 49 51 52 53 53 52 50 49 50 51 52 52 52 53 53 54 55 55 55 55 55 55 55 56 56 56 56 57 57 58 59 59 60 60
43 43 43 44 45 45 45 44 43 42 43 45 46 46 46 44 41 40 41 42 43 43 43 41 40 40 41 42 41 40 40 40 41 42 43 44 46 48 49 50 51 51 51 49 49 49 49 50 52 53 53 54 55 55 56 57 58 58 58 57 56 57 57 58 59 59 60 61 61 62 62 63 63 63
46 45 45 46 46 47 47 48 47 47 46 46 46 46 45 43 43 44 43 42 42 42 41 40 39 40 41 41 41 41 42 43 43 44 44 45 47 48 48 48 47 47 47 47 48 50 52 54 55 55 55 55 57 57 58 58 59 59 59 59 59 60 60 61 62 62 63 64 64 64 65 65 66 66
49 48 48 48 48 48 48 49 49 48 47 46 45 45 43 42 42 44 42 41 40 40 39 39 40 42 43 43 44 45 45 44 43 43 43 44 44 44 44 45 45 47 48 50 51 53 54 54 54 55 55 55 56 58 59 59 60 61 61 62 62 63 63 63 64 64 64 64 64 64 65 65 65 65
52 52 52 51 50 50 51 51 50 48 47 45 43 41 40 41 42 41 39 38 37 37 38 39 41 43 45 46 46 45 44 42 41 41 42 42 43 43 44 46 48 49 51 52 54 54 54 53 53 54 56 56 56 58 60 61 63 63 64 64 64 64 64 63 62 62 62 62 62 62 62 63 63 62
55 54 53 52 52 52 52 51 50 48 44 42 42 41 41 44 45 43 41 38 36 36 37 40 42 44 45 45 44 43 41 40 40 41 42 42 43 44 46 48 49 51 52 54 54 54 53 54 55 56 57 58 59 60 62 63 63 63 63 63 62 61 60 60 59 59 59 58 58 58 58 59 59 58
55 53 53 53 53 52 49 48 47 45 43 42 43 43 43 44 44 42 41 40 39 40 41 43 45 45 44 43 41 40 39 40 40 41 42 43 45 46 47 49 50 52 52 53 53 53 54 55 57 58 60 61 61 62 62 62 61 60 59 57 56 55 54 54 54 54 54 54 54 54 54 54 54 53
53 53 52 50 48 46 44 43 42 41 42 43 44 44 44 44 42 41 42 42 42 43 44 45 45 43 42 41 40 39 40 40 40 42 44 45 46 47 48 50 51 51 51 52 53 55 56 57 59 61 61 61 59 58 57 55 55 54 53 52 50 49 49 49 49 50 50 50 50 49 49 48 47 46
53 50 46 44 45 45 43 43 44 45 47 48 48 47 47 46 45 44 45 44 44 44 44 43 43 42 41 41 41 41 41 42 43 45 46 47 47 48 48 49 49 50 51 54 56 57 58 59 60 60 58 56 54 52 50 49 49 49 48 48 48 48 47 47 47 46 45 43 42 42 42 42 42 43
50 46 43 44 48 49 48 48 50 52 53 52 49 49 48 48 47 46 45 45 44 43 43 42 42 42 42 42 41 42 42 43 45 47 47 47 48 48 47 47 48 50 53 56 57 58 58 57 56 54 52 49 47 46 45 45 45 46 45 46 47 47 45 43 42 40 38 38 38 40 41 42 43 44
47 46 46 48 51 52 52 53 54 55 54 51 49 48 47 47 46 45 44 45 44 43 42 42 42 42 42 42 42 42 42 44 45 46 47 47 47 46 46 47 49 53 55 56 56 56 55 54 52 49 46 44 43 43 43 43 45 45 44 43 42 40 38 36 36 36 36 37 39 41 42 43 44 44
46 45 45 47 52 54 53 52 53 52 51 48 46 46 46 46 47 47 46 46 45 43 43 43 43 43 43 43 43 42 43 44 45 46 46 45 45 45 46 49 52 55 56 55 54 53 51 49 47 45 43 42 43 43 43 43 43 42 40 36 33 32 33 33 34 35 37 37 39 41 42 42 43 43
47 47 44 46 51 53 50 49 48 46 44 43 41 42 43 44 45 47 47 48 47 46 46 46 45 45 45 44 43 43 44 45 45 44 44 44 45 46 48 51 54 54 53 52 50 48 45 43 42 42 43 43 43 43 41 39 37 33 31 29 29 30 31 32 33 35 36 36 38 40 41 41 41 41
46 47 47 49 53 52 49 46 46 45 45 45 44 44 44 45 45 46 47 48 48 47 46 45 44 43 43 43 43 44 46 45 44 43 44 45 46 47 50 52 53 51 49 47 45 42 40 39 40 42 43 42 40 38 34 31 29 27 26 26 28 29 30 32 33 34 35 36 37 39 40 40 39 38
41 43 47 51 53 51 49 48 48 48 49 50 49 47 44 44 44 44 45 47 47 46 45 44 43 43 44 44 45 45 45 44 43 44 45 45 46 48 51 51 49 47 44 42 39 37 37 38 41 42 42 38 34 31 28 26 25 24 25 25 26 27 29 31 33 35 36 36 37 37 38 38 36 35
40 45 50 54 54 53 53 54 54 53 50 47 45 43 41 41 41 41 42 44 44 44 44 43 43 44 44 43 43 43 43 42 43 43 44 45 47 49 49 47 44 42 40 37 35 35 36 38 41 40 37 33 30 28 26 24 22 22 23 24 25 27 30 32 34 35 36 37 38 37 36 35 34 33
40 46 51 55 56 57 59 58 54 50 44 40 37 37 37 38 38 39 39 40 40 40 40 40 40 40 39 39 39 39 39 40 41 42 44 45 46 45 43 41 39 37 35 34 33 34 36 39 39 36 31 28 28 27 26 24 22 22 24 25 27 29 31 33 35 37 38 38 39 37 35 34 32 32
43 48 51 52 51 50 50 47 43 39 37 36 36 35 35 35 35 35 37 38 38 38 38 37 36 36 35 34 34 34 35 37 39 41 42 42 41 39 37 35 34 33 33 32 32 34 36 38 37 32 27 24 24 25 25 25 23 23 25 27 28 29 31 34 36 38 39 39 38 36 33 32 30 27
46 49 49 47 45 42 38 36 34 34 35 35 35 34 34 34 34 35 36 36 36 36 36 35 33 32 31 30 31 32 34 36 37 38 37 36 35 34 32 31 30 31 31 32 32 33 36 38 35 29 25 22 21 21 22 23 23 24 25 26 27 29 31 34 36 38 39 38 34 30 27 25 22 19
48 48 42 35 34 35 34 34 35 36 36 35 33 32 31 32 33 34 35 34 34 33 31 30 28 28 28 30 31 33 33 33 33 33 33 32 31 29 28 28 28 30 31 32 32 33 36 36 33 27 23 20 19 18 19 20 21 23 25 26 27 29 31 34 36 37 35 32 26 21 17 15 14 13
52 48 39 31 30 32 34 36 38 38 37 34 31 29 30 30 31 31 31 29 28 26 25 26 27 28 29 30 31 30 30 29 29 29 29 29 28 26 26 26 27 29 30 31 31 32 34 35 32 26 22 19 18 17 17 19 20 23 25 26 28 29 31 33 35 33 28 22 18 14 12 10 9 8
50 46 37 31 30 31 33 33 34 34 33 31 30 30 30 30 29 29 28 26 24 23 24 26 28 29 29 28 27 27 27 27 27 27 26 26 25 25 25 25 27 28 29 30 30 31 32 34 31 26 22 20 19 18 19 20 22 24 26 27 28 30 31 32 32 28 21 16 14 12 11 9 7 7
43 43 38 30 27 29 29 28 28 29 30 30 30 31 31 30 28 28 27 25 23 22 24 25 27 27 26 25 24 25 25 25 24 25 25 24 24 23 24 25 27 28 29 29 29 29 30 32 30 26 23 21 20 20 21 22 24 25 26 27 28 29 30 30 28 23 18 15 13 11 9 8 8 9
39 38 36 31 28 29 28 26 27 28 28 29 30 30 29 30 29 26 24 23 21 21 22 23 23 23 23 23 23 23 23 23 23 23 23 23 23 23 24 25 26 27 28 28 28 28 29 29 28 25 23 22 22 22 23 24 24 24 25 26 27 28 28 27 26 21 16 14 13 10 9 9 11 12
46 42 40 35 30 28 27 26 28 29 29 30 30 29 29 30 29 26 23 21 21 21 21 22 21 19 19 20 21 21 22 22 22 22 23 22 22 23 24 24 25 26 27 27 27 27 27 28 27 24 22 22 23 23 24 24 23 23 23 24 25 26 26 25 24 21 17 14 12 10 10 11 14 15
52 54 53 48 42 38 34 31 30 32 33 33 31 30 31 31 29 26 23 22 21 21 22 22 22 21 21 22 22 22 22 22 22 22 23 22 22 22 23 24 24 25 25 26 26 25 26 27 26 23 20 20 21 22 22 21 21 21 22 23 24 25 25 23 22 20 17 15 12 11 11 13 15 16
Wind_Direction
229 227 227 229 230 230 230 232 231 228 228 230 231 232 235 245 250 250 253 255 259 262 263 266 271 274 278 281 284 286 287 289 289 290 290 289 288 287 287 288 288 289 291 292 294 295 296 296 295 295 294 293 293 292 291 289 289 288 288 288 289 289 290 290 291 293 294 295 296 295 293 290 288 286
233 225 222 223 224 227 230 233 234 232 232 232 233 238 240 247 253 256 261 264 264 264 264 266 269 272 276 278 281 283 283 284 284 286 286 286 287 287 286 286 286 286 286 287 289 290 291 291 291 291 291 292 291 291 291 290 289 288 288 288 288 289 289 289 289 290 291 292 293 293 293 292 291 290
250 240 233 231 229 233 239 243 245 245 247 248 248 248 246 247 251 253 256 259 261 261 261 263 265 267 270 271 274 277 277 279 280 281 282 281 281 281 281 282 283 285 286 287 287 287 288 289 290 290 290 290 290 289 288 287 286 285 284 284 285 285 286 287 288 288 288 288 288 288 289 289 289 289
264 261 259 256 253 256 262 267 270 272 274 270 261 255 253 253 254 254 252 252 254 257 258 261 263 265 265 266 270 273 275 277 278 279 279 278 277 277 279 282 285 288 290 291 292 292 292 293 294 294 294 294 293 292 290 288 287 285 284 282 281 280 280 280 281 282 283 284 284 285 284 285 285 286
270 274 278 282 285 287 289 291 290 286 281 275 267 260 259 259 258 259 258 254 253 255 257 261 265 266 268 269 271 272 273 274 276 276 276 276 277 277 279 284 287 290 291 291 292 293 295 296 296 297 297 297 297 296 295 293 292 291 289 288 286 283 281 279 277 277 276 277 278 279 280 281 281 282
274 279 285 290 295 298 301 301 296 288 283 280 275 268 265 265 264 263 263 263 262 263 263 264 265 268 272 274 274 273 273 274 275 276 276 276 278 280 282 286 288 291 293 294 294 294 295 295 295 296 296 295 295 294 294 293 292 291 291 290 290 289 287 285 282 279 277 275 273 273 274 275 276 277
279 283 287 291 296 301 303 300 293 287 285 283 279 273 269 269 271 270 270 271 271 271 271 270 269 270 273 275 275 275 275 275 275 274 274 275 278 281 285 288 291 293 295 296 297 296 295 294 294 294 294 294 294 293 293 293 292 292 290 290 289 288 287 286 285 283 280 277 275 272 270 269 269 270
283 287 291 297 304 309 308 304 295 288 286 286 284 282 279 274 274 276 276 276 276 275 275 274 273 272 271 270 273 275 277 276 275 273 272 272 274 276 279 282 286 289 292 294 295 295 295 294 293 292 292 292 291 291 291 292 293 293 293 292 291 290 289 287 285 283 281 278 276 274 272 270 268 266
286 290 296 303 311 312 309 307 298 289 289 289 288 289 288 283 278 275 275 276 277 277 277 277 276 275 273 273 274 276 277 277 277 276 276 276 276 276 277 279 282 285 288 290 291 292 292 292 293 293 293 292 291 290 289 289 289 289 289 289 289 288 287 287 286 284 282 280 278 276 274 271 269 268
299 302 306 309 309 305 301 302 299 293 290 288 283 282 283 283 282 278 274 272 271 272 273 274 275 275 275 276 276 276 275 275 275 276 278 280 280 281 282 283 285 287 288 288 288 288 290 291 292 293 293 293 293 291 290 289 288 288 287 286 285 284 283 282 282 281 281 281 280 278 277 275 273 271
305 309 310 307 305 303 301 302 301 297 293 289 282 275 272 275 280 281 279 277 274 271 270 269 271 272 273 275 275 274 273 272 273 274 277 279 281 281 282 284 286 288 288 288 287 287 288 291 293 293 293 293 292 291 289 288 287 287 287 286 285 284 283 281 280 279 279 279 278 278 277 277 276 274
300 303 304 300 299 300 300 300 300 298 295 292 289 282 273 269 273 277 277 277 277 277 275 272 270 269 270 272 273 273 272 272 272 273 275 276 279 281 282 283 285 287 288 289 289 288 289 291 292 291 291 290 289 288 287 286 286 285 285 285 285 284 284 283 282 281 279 278 278 277 276 276 275 274
295 296 296 295 296 296 295 294 295 296 295 293 292 290 284 277 274 275 275 275 274 275 277 277 275 273 271 270 271 271 272 273 273 274 276 277 280 283 284 284 284 286 288 291 292 292 292 292 292 291 289 288 286 285 285 284 284 284 284 284 284 284 283 283 283 282 281 280 279 278 277 276 275 275
286 289 290 291 292 291 289 289 290 290 291 292 291 289 289 286 283 280 279 278 276 274 276 278 279 277 274 271 270 271 272 273 274 274 276 277 279 281 283 284 284 283 285 289 292 292 292 293 293 292 290 289 287 285 284 283 283 283 283 283 284 284 283 283 283 282 281 280 280 279 278 278 277 276
282 285 286 287 285 282 281 282 284 284 285 287 288 288 288 287 285 283 281 280 279 279 280 281 282 281 277 274 272 271 272 273 273 274 274 275 276 277 279 282 284 283 283 286 289 290 290 291 292 291 290 290 289 287 285 283 282 282 281 281 281 281 281 281 281 281 280 280 279 279 278 278 278 277
286 286 286 287 286 283 282 282 283 282 281 280 283 285 285 285 284 284 283 281 280 279 280 281 282 282 280 279 277 274 273 274 274 275 276 276 277 277 278 280 282 282 282 284 286 288 289 290 290 290 290 290 290 289 288 288 287 286 285 284 282 280 279 279 278 278 278 278 278 278 278 278 277 277
288 286 284 284 285 285 284 284 284 283 282 280 279 280 281 282 281 282 282 282 280 278 277 279 280 280 279 279 278 276 276 277 278 278 278 278 277 277 278 279 280 282 283 284 287 289 291 291 292 291 290 290 289 289 289 290 291 291 291 289 287 284 282 281 280 279 279 279 279 279 279 278 278 277
285 284 282 283 284 284 283 284 284 284 284 281 279 279 280 280 279 278 278 278 278 278 277 278 279 277 274 274 274 276 278 281 281 280 279 278 277 278 279 281 283 285 287 289 290 291 292 292 292 291 290 289 288 287 288 289 291 292 292 291 289 288 286 284 283 282 281 281 280 280 279 279 278 278
283 282 283 284 284 282 280 281 283 284 283 281 281 283 284 284 280 277 275 275 275 276 276 277 276 273 270 271 274 276 278 279 279 278 277 277 278 279 282 285 288 290 292 293 292 291 291 292 292 291 290 287 285 285 286 287 289 292 293 292 290 289 288 288 287 285 284 283 281 280 280 279 279 278
281 281 281 282 281 280 279 280 281 281 280 280 282 285 286 286 282 276 273 272 272 273 274 274 273 273 273 274 276 276 276 276 277 277 278 279 281 282 285 287 290 291 292 291 291 290 291 292 293 292 289 287 286 286 287 289 291 293 293 292 290 290 289 289 288 287 286 285 284 283 282 281 280 279
280 279 279 279 279 279 280 279 278 277 277 278 282 284 284 285 283 278 274 272 271 272 272 273 273 273 273 273 274 274 276 278 280 281 282 284 285 286 288 289 290 290 289 289 289 290 292 294 294 293 291 289 289 290 291 292 292 293 292 291 290 289 289 288 288 288 287 287 286 285 284 283 283 282
280 280 280 279 278 278 278 277 277 277 276 277 279 279 280 279 277 275 274 272 271 270 271 272 271 270 270 272 274 277 280 282 284 285 286 287 287 288 289 289 288 287 288 289 291 293 295 297 296 294 293 292 292 292 292 293 293 292 292 291 290 289 289 289 288 288 287 287 287 286 286 285 284 284
282 282 281 281 281 280 278 276 276 277 277 276 275 275 275 274 272 271 272 272 270 269 268 268 269 270 274 278 280 283 284 285 286 287 288 289 291 291 291 290 290 291 293 295 296 297 298 298 297 295 294 293 293 294 294 294 293 293 292 292 291 290 290 289 289 288 287 287 287 286 285 285 284 284
283 283 283 283 283 282 280 278 277 276 275 274 272 271 271 270 269 270 271 271 271 269 268 268 270 273 277 280 282 284 285 285 286 288 290 292 293 293 293 294 295 296 297 298 298 298 297 297 296 295 294 293 292 293 293 293 293 291 291 290 290 289 289 289 288 287 287 286 286 285 284 284 283 283
282 283 283 283 282 282 281 278 276 275 273 270 268 268 268 267 269 271 272 271 270 269 269 271 274 276 278 280 282 283 284 286 288 290 293 295 296 295 296 296 297 297 297 297 297 296 295 294 294 294 294 293 293 292 292 293 292 291 290 289 289 288 288 287 287 286 285 285 285 284 284 283 282 282
281 281 281 282 282 281 278 274 274 275 274 270 268 266 265 266 269 271 270 269 269 269 270 273 275 277 279 282 282 282 284 287 290 293 295 296 296 296 296 296 296 296 296 296 296 295 295 295 296 296 296 296 295 295 294 294 293 292 291 290 289 288 287 286 286 286 285 285 285 285 284 284 283 283
278 279 281 282 280 275 270 269 270 271 269 267 266 264 263 265 268 269 268 269 270 271 272 273 275 278 281 281 280 280 284 287 291 294 295 295 294 295 295 295 296 296 297 298 298 298 299 299 299 300 300 299 299 298 297 296 295 294 293 292 290 289 287 287 286 286 286 286 286 286 286 285 285 284
277 279 279 274 268 264 263 263 263 262 262 263 263 261 261 263 265 266 267 269 270 271 271 273 275 279 280 278 277 279 283 286 290 293 295 294 294 295 296 297 298 299 301 302 302 302 302 302 302 302 302 302 301 300 299 297 295 294 293 293 291 290 290 289 289 288 288 288 287 287 287 286 286 286
276 276 271 264 261 262 262 262 261 260 261 262 261 260 260 262 264 265 266 268 268 269 271 273 276 278 277 276 277 280 284 287 291 294 295 295 295 295 297 298 300 302 303 303 303 303 304 303 303 303 303 302 301 299 298 296 294 293 292 292 292 292 292 291 291 291 290 289 289 288 288 287 287 287
274 271 267 263 262 261 261 261 260 259 259 260 261 261 260 261 262 263 265 267 268 270 272 273 274 276 276 276 278 281 285 289 293 295 295 294 295 295 297 299 302 304 304 304 304 304 304 303 303 302 302 301 300 298 297 295 294 293 293 292 292 292 293 293 293 292 292 291 291 290 289 289 288 288
272 269 265 260 258 258 258 258 257 257 258 260 260 261 260 260 261 262 264 266 268 270 271 272 273 274 276 277 278 280 286 291 293 293 293 293 295 296 298 301 304 305 304 304 304 304 303 303 303 302 302 301 300 299 297 296 295 294 294 294 293 294 295 295 295 294 294 294 293 292 292 292 292 292
268 268 263 254 253 256 255 253 253 255 256 257 259 262 264 264 264 264 265 266 267 268 270 272 274 275 276 276 276 280 287 290 291 291 293 294 296 298 300 303 304 304 303 303 303 303 303 303 302 303 303 302 301 300 299 297 296 295 295 297 298 298 297 297 297 297 297 296 296 296 296 296 297 296
265 265 259 250 249 251 250 249 253 257 259 261 266 268 268 267 267 267 266 266 266 267 269 272 274 276 276 276 277 282 287 288 287 290 293 294 296 298 301 303 303 303 302 302 302 302 303 303 304 304 305 304 302 300 298 297 297 298 300 302 302 301 300 300 301 300 300 300 300 299 298 299 298 297
258 256 253 250 247 246 247 250 256 262 266 268 271 271 268 267 267 267 266 266 266 266 269 272 274 276 278 279 281 284 286 286 286 290 292 294 296 300 302 302 302 301 301 301 301 302 304 305 306 307 307 304 301 298 296 296 298 302 304 303 301 301 302 303 304 303 303 303 303 301 300 299 298 297
253 249 248 249 248 247 250 256 261 265 268 269 270 269 267 265 264 263 264 265 266 268 270 273 276 278 281 282 283 283 284 284 286 289 292 295 298 300 300 300 299 299 300 300 302 305 307 308 309 310 307 303 299 297 297 298 301 304 304 302 302 303 305 306 307 308 308 308 307 305 303 300 298 297
245 244 243 246 248 249 252 256 260 262 265 265 265 264 263 263 263 265 267 270 272 274 275 277 279 280 280 280 279 280 281 283 286 290 293 296 298 298 298 298 298 298 299 301 303 307 309 310 312 311 305 300 299 300 301 303 305 306 306 306 307 308 310 311 312 312 312 310 309 307 304 301 299 298
237 242 244 247 249 249 251 253 255 256 257 258 258 259 261 265 267 269 271 274 276 277 277 277 277 276 275 275 277 280 283 287 290 293 295 295 296 296 296 296 296 297 299 302 305 309 312 314 314 310 302 297 298 300 302 304 305 306 307 308 310 312 315 316 315 314 313 311 309 306 302 299 299 299
234 241 247 251 251 249 248 246 245 247 251 255 258 261 264 267 269 270 272 274 274 273 272 270 270 270 272 276 281 285 289 291 292 293 293 294 294 295 294 293 294 296 299 303 308 312 314 315 313 307 299 296 296 297 300 303 305 307 309 311 314 317 319 318 317 317 316 314 311 306 302 299 300 301
232 236 241 247 250 250 249 247 246 249 253 258 263 267 268 269 271 271 271 270 268 266 265 266 269 273 279 285 289 291 292 292 292 292 293 294 294 293 291 291 294 297 302 306 310 312 314 315 313 305 297 294 293 293 297 302 306 309 312 314 317 320 321 320 321 322 322 320 317 314 311 308 308 309
231 233 235 236 240 243 247 250 250 251 252 257 263 267 269 270 269 266 263 261 260 261 265 270 275 281 287 291 292 291 290 289 290 292 293 293 291 289 288 290 294 298 303 306 309 311 314 316 313 304 294 291 291 291 295 301 306 310 313 316 319 322 324 325 326 328 329 329 330 331 330 326 326 331
228 232 237 241 243 245 249 252 252 252 254 259 263 264 264 263 259 254 251 252 256 264 272 278 282 288 292 291 287 285 286 288 290 292 292 290 287 286 286 290 295 299 303 305 307 311 315 316 313 303 292 287 288 290 294 300 306 311 314 317 321 325 327 329 331 333 334 336 338 340 340 341 346 352
235 241 245 247 246 246 249 252 253 256 259 259 257 254 252 249 246 243 244 249 259 271 278 283 287 290 289 285 282 283 286 289 291 291 289 286 283 283 285 290 296 300 304 305 307 311 316 318 314 303 291 284 284 287 293 300 306 310 314 319 323 326 329 332 335 336 335 334 335 337 339 340 341 342
240 242 241 237 236 238 241 242 242 244 246 245 244 245 246 245 245 248 253 260 268 274 276 279 283 284 283 281 282 285 288 290 290 289 286 283 280 281 286 292 297 301 303 305 307 311 317 320 316 306 293 284 282 286 291 298 304 309 313 318 322 326 331 335 338 337 333 329 329 328 326 325 325 327
232 233 232 232 232 234 238 243 245 246 247 247 246 248 251 253 256 261 268 272 274 273 271 270 273 278 284 287 287 288 290 290 289 287 283 278 277 281 287 294 298 301 304 306 307 311 319 324 323 313 299 288 283 285 290 296 302 307 311 315 322 328 333 336 339 338 332 324 320 316 314 316 319 319
232 235 238 239 237 235 238 246 254 257 258 258 256 254 254 256 260 266 271 274 272 270 266 262 263 273 287 295 296 293 291 289 287 284 279 274 275 281 289 294 298 301 303 306 307 312 321 329 329 321 308 296 289 288 291 296 301 307 312 318 326 331 334 335 338 340 335 323 312 305 302 306 311 313